Vorticity
6 5 -0 -6 -2 5 8 10 11 13 5 13 -2 -1 4 9 5 4 -2 19 6 23 7 8 10 3 -2 5 8 4 3 6 16 13 -3 -2 5 14 16 17 12 8 4 8
19 23 15 20 24 19 8 4 5 10 18 2 8 8 26 -1 -1 8 42 -7 34 18 6 12 -0 -5 17 4 3 7 9 20 -1 11 2 5 9 -5 -0 2 5 10 16 14
2 12 10 14 10 9 10 17 10 9 -5 -2 4 6 10 0 7 31 6 -8 15 12 4 -21 16 16 10 10 9 13 20 3 5 9 6 14 -10 -1 0 -7 -5 5 8 7
10 9 10 4 4 9 12 10 11 13 3 5 15 5 15 22 9 3 3 17 -4 16 15 49 23 9 5 9 13 8 3 7 7 5 13 6 -10 4 -7 -1 9 8 10 7
18 11 10 7 18 13 14 17 16 18 18 23 32 14 16 4 7 15 6 5 5 21 18 14 11 17 15 10 5 -2 8 4 8 0 0 5 5 -5 6 16 12 10 12 14
10 9 11 10 12 19 14 17 22 22 18 19 11 1 37 12 29 23 2 -9 18 -0 12 4 11 2 1 3 6 9 13 8 3 5 1 7 19 22 17 16 12 10 9 12
14 11 9 12 23 16 15 7 -1 3 17 4 0 27 6 5 11 0 45 -38 39 -15 -10 22 4 1 3 16 16 13 12 14 16 22 25 20 14 12 13 16 17 18 13 12
10 11 16 16 6 4 1 -2 2 6 9 1 6 1 5 8 19 20 -16 20 -16 28 12 -15 4 10 9 7 9 9 11 13 10 7 6 5 11 13 12 10 11 12 10 9
16 7 14 13 8 8 5 4 7 4 3 3 8 7 5 28 -6 25 -6 -4 8 7 4 6 11 6 7 9 11 9 13 10 7 10 11 11 10 10 11 14 14 13 12 11
5 7 4 4 1 -1 4 6 7 3 6 10 9 4 11 8 7 13 3 5 11 11 14 9 4 7 11 10 7 6 5 7 4 9 16 15 16 13 9 7 7 7 7 7
9 6 -2 1 4 7 6 6 -1 8 6 6 7 18 13 11 5 8 8 10 6 5 6 7 10 12 14 1 4 8 2 5 6 14 12 8 8 7 7 4 5 7 5 6
10 8 10 4 7 6 3 0 3 9 17 16 3 3 12 10 4 8 7 4 8 7 9 11 12 15 7 5 4 8 5 7 13 12 10 7 5 9 2 6 3 3 4 5
8 -10 20 3 3 8 4 6 14 16 8 -0 8 10 8 5 -1 3 7 10 8 11 8 9 14 9 3 5 3 3 9 16 15 10 5 8 7 8 5 3 3 6 5 6
5 6 -5 23 -1 -2 15 14 -1 -2 6 7 8 8 7 -1 5 8 8 5 7 6 6 10 10 8 1 5 7 9 16 17 9 5 8 6 7 8 6 5 6 5 6 3
11 12 -28 18 8 15 11 10 17 7 7 8 6 8 4 3 6 8 6 7 8 5 9 8 8 10 9 6 9 15 17 11 5 8 8 6 7 8 5 6 6 6 5 11
14 34 19 17 15 11 5 9 1 10 7 6 8 9 4 7 5 7 11 7 6 9 7 7 5 -3 10 5 6 17 12 7 8 9 8 7 7 8 9 7 6 5 12 17
17 9 7 10 10 13 13 23 6 12 10 12 10 4 9 6 3 5 4 8 7 10 9 9 7 12 6 8 7 19 7 8 7 6 5 4 5 7 7 6 6 10 17 24
17 20 14 11 7 11 9 13 15 8 12 7 7 10 10 5 5 4 9 7 7 7 6 6 10 10 7 8 19 8 8 7 3 2 2 3 5 5 6 6 9 14 25 28
11 14 15 18 16 12 17 10 9 12 10 6 10 9 6 6 4 9 10 7 7 8 5 7 6 9 9 10 11 9 6 5 3 2 2 2 5 4 6 8 12 18 31 21
9 5 5 4 6 9 14 8 11 11 6 12 7 5 6 7 5 7 11 9 7 10 8 10 10 9 13 12 8 7 6 3 3 1 3 3 4 7 8 10 14 24 27 15
4 7 7 8 7 9 15 8 7 7 11 6 5 7 8 4 8 9 9 9 6 8 6 7 7 8 18 8 7 6 5 4 3 2 3 4 5 8 10 13 18 25 21 12
9 10 9 5 8 3 3 2 4 8 6 7 10 9 5 6 7 10 11 8 8 7 6 8 8 13 16 7 6 7 5 4 4 4 4 5 6 9 10 14 24 21 14 9
5 8 5 5 7 8 8 8 7 10 8 8 7 5 6 8 8 10 12 9 8 8 8 8 8 17 11 6 5 6 4 4 4 4 4 5 6 10 11 17 25 19 12 9
4 4 3 4 7 12 6 8 10 8 8 8 8 5 9 6 8 10 9 9 8 9 6 7 15 16 8 6 5 6 5 5 4 4 5 6 7 10 15 21 22 15 10 10
10 8 5 6 8 9 8 7 8 7 6 6 7 6 11 6 10 11 10 10 8 7 7 8 17 9 7 6 6 5 5 5 5 5 5 6 7 11 17 21 21 14 11 12
4 4 3 4 9 8 8 11 9 6 9 5 6 9 9 14 11 10 11 13 10 4 4 12 12 8 7 6 5 6 6 5 5 5 6 5 6 10 15 23 22 14 12 13
Height
5850 5852 5852 5850 5848 5849 5849 5850 5851 5850 5851 5849 5845 5845 5853 5849 5845 5837 5835 5837 5842 5840 5841 5839 5838 5835 5833 5830 5826 5822 5818 5814 5810 5807 5803 5798 5795 5791 5787 5783 5780 5777 5774 5771
5843 5843 5843 5841 5841 5842 5841 5841 5844 5845 5847 5843 5843 5845 5846 5843 5838 5832 5832 5837 5832 5833 5834 5835 5833 5830 5827 5824 5820 5816 5811 5808 5804 5800 5798 5794 5790 5785 5780 5775 5770 5766 5761 5758
5834 5836 5834 5832 5833 5836 5835 5834 5835 5835 5837 5836 5836 5837 5840 5837 5833 5826 5825 5827 5829 5826 5826 5827 5826 5824 5820 5818 5814 5810 5805 5802 5798 5794 5790 5787 5783 5779 5775 5769 5763 5757 5752 5746
5829 5830 5829 5826 5825 5827 5827 5827 5826 5828 5829 5830 5831 5828 5834 5830 5825 5820 5820 5822 5823 5821 5820 5820 5818 5816 5813 5811 5808 5803 5800 5796 5792 5788 5783 5779 5774 5769 5763 5758 5752 5746 5741 5735
5826 5823 5822 5821 5823 5821 5821 5820 5821 5822 5823 5822 5825 5822 5820 5821 5819 5816 5814 5815 5813 5812 5813 5814 5813 5809 5806 5803 5799 5796 5792 5787 5783 5778 5774 5769 5763 5757 5750 5744 5738 5733 5727 5722
5816 5817 5817 5815 5817 5817 5816 5816 5817 5817 5818 5820 5816 5816 5815 5816 5813 5808 5806 5804 5809 5809 5808 5808 5803 5799 5796 5794 5791 5788 5784 5779 5773 5766 5761 5755 5749 5743 5737 5731 5725 5720 5715 5710
5810 5810 5810 5811 5813 5814 5813 5814 5814 5816 5815 5815 5812 5811 5811 5810 5809 5805 5801 5799 5801 5802 5802 5800 5795 5793 5791 5787 5781 5777 5772 5768 5763 5755 5749 5742 5736 5731 5725 5720 5715 5710 5705 5699
5804 5805 5807 5809 5810 5812 5810 5811 5810 5811 5812 5811 5809 5805 5804 5804 5804 5803 5798 5797 5797 5795 5795 5793 5787 5783 5778 5774 5770 5765 5760 5755 5749 5742 5738 5732 5727 5720 5715 5709 5704 5699 5694 5688
5800 5800 5803 5804 5807 5809 5808 5805 5808 5806 5807 5807 5806 5804 5801 5799 5799 5797 5797 5794 5793 5791 5787 5784 5778 5773 5769 5764 5758 5753 5749 5743 5738 5733 5727 5721 5715 5710 5704 5698 5693 5687 5682 5676
5797 5799 5798 5800 5803 5803 5804 5804 5804 5801 5801 5802 5801 5799 5797 5795 5793 5793 5790 5789 5787 5785 5782 5777 5772 5767 5762 5756 5750 5745 5739 5735 5729 5723 5716 5710 5704 5698 5693 5687 5681 5675 5669 5662
5794 5795 5794 5794 5796 5798 5801 5799 5799 5799 5797 5794 5796 5796 5792 5790 5790 5787 5785 5782 5781 5779 5775 5770 5764 5759 5754 5749 5742 5737 5731 5726 5719 5712 5706 5700 5694 5688 5681 5675 5669 5662 5655 5648
5788 5789 5790 5790 5791 5791 5792 5793 5792 5792 5793 5790 5789 5793 5787 5784 5782 5780 5779 5775 5773 5769 5766 5762 5757 5752 5747 5742 5736 5730 5723 5717 5710 5703 5697 5691 5685 5678 5671 5664 5657 5649 5641 5632
5782 5783 5786 5785 5786 5787 5786 5787 5786 5785 5786 5786 5783 5784 5780 5777 5776 5774 5772 5770 5767 5764 5760 5757 5751 5745 5739 5734 5728 5721 5715 5708 5701 5695 5688 5682 5676 5668 5661 5653 5644 5634 5624 5613
5775 5777 5778 5781 5776 5780 5782 5782 5780 5779 5780 5779 5779 5777 5775 5770 5770 5769 5766 5763 5760 5756 5752 5748 5744 5737 5731 5726 5719 5713 5706 5698 5692 5685 5679 5672 5665 5657 5647 5637 5626 5615 5604 5592
5767 5770 5770 5772 5771 5771 5773 5774 5773 5773 5773 5770 5772 5769 5768 5766 5766 5764 5760 5755 5751 5747 5742 5738 5734 5729 5724 5718 5710 5703 5697 5690 5683 5676 5669 5661 5652 5642 5633 5622 5611 5597 5583 5568
5760 5761 5761 5763 5763 5760 5763 5768 5768 5766 5767 5764 5763 5761 5760 5761 5758 5756 5753 5749 5746 5742 5737 5731 5726 5721 5715 5707 5700 5693 5687 5680 5673 5666 5658 5649 5640 5629 5618 5606 5593 5578 5562 5544
5751 5753 5753 5756 5754 5753 5758 5761 5758 5758 5758 5756 5754 5754 5755 5753 5750 5749 5747 5743 5738 5734 5728 5723 5717 5712 5706 5698 5691 5684 5678 5671 5664 5656 5647 5637 5626 5615 5603 5588 5573 5556 5538 5520
5745 5746 5745 5748 5747 5749 5754 5752 5750 5751 5751 5746 5748 5749 5748 5744 5741 5737 5736 5732 5728 5723 5718 5713 5707 5702 5696 5689 5681 5675 5669 5662 5654 5645 5635 5624 5613 5600 5585 5570 5553 5534 5515 5498
5738 5738 5738 5739 5740 5744 5749 5744 5744 5743 5742 5741 5742 5742 5740 5738 5734 5730 5727 5723 5719 5714 5710 5704 5698 5692 5685 5678 5671 5665 5659 5651 5643 5633 5621 5610 5598 5583 5568 5551 5532 5513 5496 5481
5732 5733 5732 5733 5734 5735 5741 5737 5737 5736 5735 5735 5734 5733 5733 5730 5727 5724 5721 5717 5712 5706 5700 5694 5689 5683 5675 5668 5662 5656 5648 5640 5631 5620 5608 5596 5581 5566 5550 5531 5512 5493 5476 5462
5725 5725 5724 5726 5726 5729 5733 5726 5730 5730 5733 5728 5726 5725 5723 5719 5717 5714 5710 5706 5700 5696 5691 5685 5680 5672 5665 5659 5652 5646 5638 5629 5619 5608 5595 5581 5565 5550 5532 5512 5493 5476 5461 5447
5718 5717 5719 5719 5718 5721 5724 5719 5719 5723 5720 5719 5718 5716 5712 5710 5707 5704 5701 5696 5691 5687 5681 5676 5669 5662 5656 5649 5643 5636 5628 5618 5608 5596 5582 5567 5551 5535 5516 5497 5478 5460 5445 5432
5707 5711 5709 5711 5712 5712 5713 5714 5712 5711 5711 5710 5710 5706 5703 5701 5699 5695 5692 5688 5683 5678 5672 5665 5659 5652 5646 5640 5634 5626 5617 5607 5596 5584 5570 5554 5538 5520 5501 5483 5463 5447 5431 5417
5695 5699 5700 5701 5705 5706 5702 5704 5703 5703 5702 5703 5700 5695 5694 5691 5689 5685 5682 5678 5673 5667 5662 5655 5649 5642 5637 5630 5624 5616 5607 5596 5585 5573 5558 5543 5527 5508 5488 5468 5449 5433 5419 5405
5688 5688 5692 5694 5697 5697 5695 5695 5693 5693 5694 5694 5691 5686 5684 5682 5679 5676 5672 5668 5662 5658 5652 5646 5639 5633 5627 5621 5614 5606 5597 5587 5575 5562 5547 5532 5516 5498 5478 5458 5440 5424 5406 5388
5678 5680 5681 5683 5687 5687 5686 5683 5682 5683 5682 5681 5679 5677 5674 5672 5669 5666 5663 5658 5653 5649 5642 5637 5631 5625 5618 5612 5605 5596 5587 5577 5564 5551 5537 5522 5506 5488 5470 5453 5437 5417 5400 5384